GW3576 Weather Reports


time (UTC)temp
C
wind
direction
speed
KPH
gust
KPH
rain 1hr
cm
rain 24hr
cm
rain mn
cm
humidity
%
barometer
mb
20260906203118 29 165 1.6 6.4 0.00 0.00 0.00 78 1014.1
20260906202115 29 161 3.2 4.8 0.00 0.00 0.00 78 1014.2
20260906201118 29 186 1.6 3.2 0.00 0.00 0.00 79 1014.1
20260906200119 28 175 3.2 6.4 0.00 0.00 0.00 78 1014.2
20260906195119 28 157 3.2 6.4 0.00 0.00 0.00 80 1014.0
20260906194116 28 157 4.8 9.7 0.00 0.00 0.00 81 1014.0
20260906193116 28 164 4.8 6.4 0.00 0.00 0.00 81 1013.8
20260906192119 28 175 4.8 8.0 0.00 0.00 0.00 82 1013.8
20260906191116 27 173 1.6 3.2 0.00 0.00 0.00 84 1014.0
20260906190116 27 167 4.8 6.4 0.00 0.00 0.00 83 1014.0
20260906185117 27 161 3.2 6.4 0.00 0.00 0.00 84 1014.0
20260906184117 27 164 4.8 8.0 0.00 0.00 0.00 84 1014.2
20260906183117 27 154 4.8 8.0 0.00 0.00 0.00 84 1014.5
20260906182117 26 152 6.4 11.3 0.00 0.00 0.00 85 1014.5
20260906181118 26 171 3.2 6.4 0.00 0.00 0.00 86 1014.9
20260906180118 26 155 4.8 11.3 0.00 0.00 0.00 86 1014.9
20260906175118 26 166 4.8 11.3 0.00 0.00 0.00 86 1015.0
20260906174138 25 191 3.2 9.7 0.00 0.00 0.00 87 1015.0
20260906173118 25 187 3.2 8.0 0.00 0.00 0.00 88 1015.2
20260906172118 25 161 3.2 9.7 0.00 0.00 0.00 88 1015.3
20260906171119 25 147 3.2 9.7 0.00 0.00 0.00 89 1015.5
20260906170136 25 171 4.8 9.7 0.00 0.00 0.00 88 1015.6
20260906165118 24 188 3.2 6.4 0.00 0.00 0.00 89 1015.8
20260906164219 24 162 8.0 12.9 0.00 0.03 0.00 89 1015.9
20260906163119 23 160 6.4 9.7 0.00 0.15 0.00 89 1015.9
20260906162116 23 166 4.8 11.3 0.00 0.33 0.00 90 1015.9
20260906161116 23 165 3.2 8.0 0.00 0.58 0.00 90 1016.0
20260906160136 23 166 3.2 8.0 0.00 0.64 0.00 90 1016.1
20260906155120 23 187 3.2 4.8 0.00 0.64 0.00 90 1016.2
20260906154137 23 169 3.2 4.8 0.00 0.71 0.00 91 1016.2
20260906153117 23 265 1.6 3.2 0.00 0.99 0.00 90 1016.2
20260906152117 23 184 1.6 4.8 0.00 0.99 0.00 91 1016.1
20260906151117 22 158 4.8 8.0 0.00 0.99 0.00 90 1016.1
20260906150117 22 223 1.6 3.2 0.00 0.99 0.00 90 1016.2
20260906145118 22 152 3.2 8.0 0.00 0.99 0.00 90 1016.1
20260906144118 22 164 3.2 6.4 0.00 0.99 0.00 91 1016.2
20260906143122 22 154 3.2 4.8 0.00 0.99 0.00 91 1016.3
20260906142122 22 244 1.6 3.2 0.00 0.99 0.00 91 1016.4
20260906141143 22 172 3.2 4.8 0.00 0.99 0.00 91 1016.4
20260906140118 21 156 4.8 8.0 0.00 0.99 0.00 91 1016.5
20260906135123 21 195 3.2 3.2 0.00 0.99 0.00 92 1016.6
20260906134123 21 184 3.2 6.4 0.00 0.99 0.00 92 1016.7
20260906133123 21 138 1.6 3.2 0.00 0.99 0.00 92 1016.6
20260906132123 21 182 3.2 4.8 0.00 0.99 0.00 92 1016.6
20260906131144 21 150 4.8 6.4 0.00 0.99 0.00 92 1016.5
20260906130124 21 161 1.6 1.6 0.00 0.99 0.00 93 1016.5
20260906125125 20 157 6.4 8.0 0.00 0.99 0.00 93 1016.5
20260906124124 20 140 1.6 3.2 0.00 0.99 0.00 93 1016.5
20260906123124 20 116 1.6 3.2 0.00 0.99 0.00 93 1016.4
20260906122124 20 158 1.6 3.2 0.00 0.99 0.00 94 1016.4
20260906121144 20 138 0.0 1.6 0.00 0.99 0.00 94 1016.4
20260906120118 20 125 1.6 3.2 0.00 0.99 0.00 94 1016.3
20260906115118 20 38 1.6 3.2 0.00 0.99 0.00 94 1016.2
20260906114119 20 98 0.0 0.0 0.00 0.99 0.00 94 1016.2
20260906113118 20 111 0.0 1.6 0.00 0.99 0.00 94 1016.2
20260906112119 20 169 1.6 3.2 0.00 0.99 0.00 95 1016.3
20260906111115 20 283 0.0 1.6 0.00 0.99 0.00 94 1016.2
20260906110119 20 89 1.6 3.2 0.00 0.99 0.00 95 1016.3
20260906105119 20 195 0.0 1.6 0.00 0.99 0.00 94 1016.3
20260906104119 20 329 0.0 1.6 0.00 0.99 0.00 94 1016.2
20260906103116 20 52 0.0 3.2 0.00 0.99 0.00 95 1016.1
20260906102116 19 0.0 0.0 0.00 0.99 0.00 95 1016.1
20260906101139 19 89 0.0 3.2 0.00 0.99 0.00 95 1016.1
20260906100117 19 33 3.2 6.4 0.00 0.99 0.00 95 1016.2
20260906095117 19 76 1.6 3.2 0.00 0.99 0.00 95 1016.3
20260906094137 19 22 0.0 1.6 0.00 0.99 0.00 95 1016.3
20260906093118 19 36 1.6 3.2 0.00 0.99 0.00 95 1016.2
20260906092117 19 43 0.0 1.6 0.00 0.99 0.00 95 1016.1
20260906091118 19 28 0.0 1.6 0.00 0.99 0.00 95 1016.1
20260906090138 19 101 1.6 3.2 0.00 0.99 0.00 95 1016.0
20260906085138 19 79 1.6 3.2 0.00 0.99 0.00 95 1016.0
20260906084118 19 52 1.6 4.8 0.00 0.99 0.00 95 1016.0
20260906083116 19 58 3.2 6.4 0.00 0.99 0.00 94 1015.9
20260906082118 20 26 0.0 1.6 0.00 0.99 0.00 94 1015.9
20260906081119 20 310 0.0 0.0 0.00 0.99 0.00 94 1016.0
20260906080119 20 98 1.6 4.8 0.00 0.99 0.00 94 1016.0
20260906075119 20 73 1.6 3.2 0.00 0.99 0.00 93 1016.0
20260906074116 20 39 0.0 1.6 0.00 0.99 0.00 93 1016.0
20260906073136 20 25 0.0 1.6 0.00 0.99 0.00 93 1016.0
20260906072119 20 33 0.0 1.6 0.00 0.99 0.00 92 1016.0
20260906071137 20 216 0.0 1.6 0.00 0.99 0.00 92 1016.1
20260906070117 20 204 0.0 1.6 0.00 0.99 0.00 92 1016.2
20260906065117 21 204 0.0 1.6 0.00 0.99 0.00 91 1016.2
20260906064137 21 136 0.0 1.6 0.00 0.99 0.00 91 1016.1
20260906063117 21 243 1.6 3.2 0.00 0.99 0.00 91 1016.2
20260906062118 21 242 0.0 1.6 0.00 0.99 0.00 91 1016.3
20260906061117 21 275 1.6 3.2 0.00 0.99 0.00 91 1016.1
20260906060138 21 76 1.6 3.2 0.00 0.99 0.00 90 1016.0
20260906055118 21 311 1.6 3.2 0.00 0.99 0.00 90 1015.9
20260906054118 21 157 3.2 4.8 0.00 0.99 0.00 91 1015.7
20260906053119 21 197 1.6 4.8 0.00 0.99 0.00 91 1015.5
20260906052119 21 248 1.6 3.2 0.00 0.99 0.00 91 1015.7
20260906051138 21 309 1.6 4.8 0.00 0.99 0.00 91 1015.8
20260906050116 21 205 0.0 3.2 0.00 0.99 0.00 92 1015.9
20260906045119 21 342 1.6 3.2 0.00 0.99 0.99 92 1015.9
20260906044119 21 54 1.6 3.2 0.00 0.99 0.99 92 1016.1
20260906043119 21 45 1.6 3.2 0.00 0.99 0.99 91 1016.0
20260906042116 22 89 1.6 3.2 0.00 0.99 0.99 90 1015.9
20260906041117 22 11 1.6 3.2 0.00 0.99 0.99 89 1015.7
20260906040117 22 55 1.6 3.2 0.00 0.99 0.99 87 1015.8
20260906035137 22 305 0.0 1.6 0.00 0.99 0.99 87 1015.8
20260906034217 22 237 0.0 1.6 0.00 0.99 0.99 86 1015.9
20260906033118 22 304 1.6 4.8 0.00 0.99 0.99 87 1015.9
20260906032137 22 58 0.0 3.2 0.00 0.99 0.99 87 1016.1
20260906031117 22 267 0.0 3.2 0.00 0.99 0.99 87 1016.1
20260906030118 23 84 0.0 1.6 0.00 0.99 0.99 86 1016.2
20260906025138 23 185 0.0 1.6 0.00 0.99 0.99 86 1016.2
20260906024118 23 114 1.6 4.8 0.00 0.99 0.99 86 1016.1
20260906023115 23 28 3.2 4.8 0.00 0.99 0.99 84 1015.7
20260906022118 23 162 3.2 4.8 0.00 0.99 0.99 86 1015.4
20260906021119 23 165 4.8 6.4 0.00 0.99 0.99 85 1015.3
20260906020119 24 30 3.2 6.4 0.00 0.97 0.97 84 1015.8
20260906015116 24 23 1.6 4.8 0.00 0.97 0.97 84 1015.6
20260906014156 24 159 3.2 4.8 0.00 0.97 0.97 85 1015.4
20260906013119 24 39 1.6 3.2 0.00 0.97 0.97 85 1015.4
20260906012120 24 42 0.0 1.6 0.00 0.97 0.97 85 1014.9
20260906011157 25 33 1.6 3.2 0.00 0.97 0.97 85 1014.8
20260906010137 25 44 0.0 3.2 0.00 0.97 0.97 84 1014.6
20260906005117 26 209 0.0 1.6 0.00 0.97 0.97 81 1014.5
20260906004117 26 300 0.0 0.0 0.00 0.97 0.97 78 1014.4
20260906003120 26 170 0.0 3.2 0.00 0.97 0.97 76 1014.2
20260906002117 27 0.0 0.0 0.00 0.97 0.97 74 1013.9
20260906001117 27 206 1.6 3.2 0.00 0.97 0.97 74 1013.6
20260906000118 27 197 1.6 3.2 0.00 0.97 0.97 73 1013.2
20260905235118 28 173 1.6 4.8 0.00 0.97 0.97 71 1012.9
20260905234115 27 165 3.2 6.4 0.00 0.97 0.97 71 1012.8
20260905233119 28 168 3.2 6.4 0.00 0.97 0.97 70 1012.8
20260905232119 28 160 3.2 4.8 0.00 0.97 0.97 68 1013.0
20260905231139 28 154 4.8 9.7 0.00 0.97 0.97 67 1013.1
20260905230119 28 168 3.2 8.0 0.00 0.97 0.97 66 1013.2
20260905225116 28 161 6.4 11.3 0.00 0.97 0.97 66 1013.1
20260905224117 28 179 4.8 8.0 0.00 0.97 0.97 66 1013.1
20260905223119 28 153 8.0 14.5 0.00 0.97 0.97 66 1013.1
20260905222117 28 168 4.8 11.3 0.00 0.97 0.97 68 1013.0
20260905221117 28 173 4.8 8.0 0.00 0.97 0.97 68 1013.0
20260905220137 28 156 8.0 14.5 0.00 0.97 0.97 68 1013.1
20260905215117 27 157 8.0 11.3 0.00 0.97 0.97 68 1013.1
20260905214137 27 151 9.7 14.5 0.00 0.97 0.97 69 1013.1
20260905213118 27 150 8.0 14.5 0.00 0.97 0.97 71 1013.3
20260905212117 27 158 6.4 11.3 0.00 0.97 0.97 71 1013.3
20260905211118 27 159 9.7 12.9 0.00 0.97 0.97 70 1013.4
20260905210118 27 156 8.0 14.5 0.00 0.97 0.97 69 1013.4
20260905205115 27 160 9.7 17.7 0.00 0.97 0.97 71 1013.7
20260905204118 27 158 9.7 14.5 0.00 0.97 0.97 71 1013.7